| time (UTC) | temp C | wind direction | speed KPH | gust KPH | rain 1hr cm | rain 24hr cm | rain mn cm | humidity % | barometer mb |
| 20260506010904 | 9 | 3 | 0.0 | 0.0 | 0.00 | 0.00 | 0.00 | 84 | 1014.1 |
| 20260506010404 | 9 | 3 | 0.0 | 0.0 | 0.00 | 0.00 | 0.00 | 83 | 1014.1 |
| 20260506005903 | 9 | 3 | 0.0 | 0.0 | 0.00 | 0.00 | 0.00 | 83 | 1014.0 |
| 20260506005404 | 9 | 2 | 0.0 | 0.0 | 0.00 | 0.00 | 0.00 | 83 | 1014.0 |
| 20260506003904 | 9 | 3 | 0.0 | 0.0 | 0.00 | 0.00 | 0.00 | 83 | 1014.1 |
| 20260506003404 | 9 | 3 | 0.0 | 0.0 | 0.00 | 0.00 | 0.00 | 83 | 1014.1 |
| 20260506002904 | 9 | 3 | 0.0 | 0.0 | 0.00 | 0.00 | 0.00 | 82 | 1014.1 |
| 20260506002404 | 9 | 3 | 0.0 | 0.0 | 0.00 | 0.00 | 0.00 | 82 | 1014.2 |
| 20260506000904 | 9 | 3 | 0.0 | 0.0 | 0.00 | 0.00 | 0.00 | 82 | 1014.2 |
| 20260506000404 | 9 | 3 | 0.0 | 0.0 | 0.00 | 0.00 | 0.00 | 82 | 1014.2 |
| 20260505235904 | 9 | 3 | 0.0 | 0.0 | 0.00 | 0.00 | 0.00 | 82 | 1014.2 |
| 20260505235403 | 9 | 3 | 0.0 | 0.0 | 0.00 | 0.00 | 0.00 | 81 | 1014.2 |
| 20260505233903 | 9 | 3 | 0.0 | 0.0 | 0.00 | 0.00 | 0.00 | 81 | 1014.3 |
| 20260505233404 | 9 | 3 | 0.0 | 0.0 | 0.00 | 0.00 | 0.00 | 81 | 1014.3 |
| 20260505232403 | 9 | 5 | 0.0 | 4.8 | 0.00 | 0.00 | 0.00 | 80 | 1014.3 |
| 20260505230903 | 10 | 13 | 3.2 | 4.8 | 0.00 | 0.00 | 0.00 | 80 | 1014.3 |
| 20260505230403 | 10 | 355 | 1.6 | 4.8 | 0.00 | 0.00 | 0.00 | 80 | 1014.4 |
| 20260505225904 | 10 | 355 | 3.2 | 4.8 | 0.00 | 0.00 | 0.00 | 79 | 1014.4 |
| 20260505225404 | 10 | 355 | 3.2 | 8.0 | 0.00 | 0.00 | 0.00 | 79 | 1014.4 |
| 20260505223904 | 10 | 7 | 3.2 | 8.0 | 0.00 | 0.00 | 0.00 | 78 | 1014.4 |
| 20260505223404 | 10 | 13 | 4.8 | 12.9 | 0.00 | 0.00 | 0.00 | 78 | 1014.4 |
| 20260505222903 | 10 | 19 | 4.8 | 9.7 | 0.00 | 0.00 | 0.00 | 78 | 1014.5 |
| 20260505222412 | 10 | 354 | 3.2 | 9.7 | 0.00 | 0.00 | 0.00 | 78 | 1014.5 |
| 20260505220904 | 10 | 37 | 4.8 | 9.7 | 0.00 | 0.00 | 0.00 | 77 | 1014.5 |
| 20260505220403 | 10 | 19 | 4.8 | 9.7 | 0.00 | 0.00 | 0.00 | 77 | 1014.5 |
| 20260505215904 | 10 | 7 | 4.8 | 12.9 | 0.00 | 0.00 | 0.00 | 77 | 1014.5 |
| 20260505215403 | 10 | 4 | 4.8 | 14.5 | 0.00 | 0.00 | 0.00 | 76 | 1014.5 |
| 20260505213904 | 10 | 29 | 6.4 | 12.9 | 0.00 | 0.00 | 0.00 | 75 | 1014.6 |
| 20260505213404 | 10 | 358 | 8.0 | 20.9 | 0.00 | 0.00 | 0.00 | 75 | 1014.6 |
| 20260505212903 | 10 | 14 | 8.0 | 12.9 | 0.00 | 0.00 | 0.00 | 75 | 1014.5 |
| 20260505212404 | 10 | 351 | 6.4 | 14.5 | 0.00 | 0.00 | 0.00 | 74 | 1014.5 |
| 20260505210904 | 10 | 356 | 8.0 | 16.1 | 0.00 | 0.00 | 0.00 | 73 | 1014.6 |
| 20260505210403 | 10 | 359 | 6.4 | 14.5 | 0.00 | 0.00 | 0.00 | 73 | 1014.6 |
| 20260505205903 | 10 | 22 | 6.4 | 14.5 | 0.00 | 0.00 | 0.00 | 73 | 1014.6 |
| 20260505205404 | 11 | 5 | 8.0 | 16.1 | 0.00 | 0.00 | 0.00 | 72 | 1014.6 |
| 20260505203904 | 11 | 17 | 6.4 | 14.5 | 0.00 | 0.00 | 0.00 | 71 | 1014.5 |
| 20260505203403 | 11 | 35 | 6.4 | 12.9 | 0.00 | 0.00 | 0.00 | 71 | 1014.5 |
| 20260505202904 | 11 | 341 | 6.4 | 12.9 | 0.00 | 0.00 | 0.00 | 71 | 1014.5 |
| 20260505202404 | 11 | 12 | 4.8 | 19.3 | 0.00 | 0.00 | 0.00 | 71 | 1014.5 |
| 20260505200903 | 11 | 11 | 4.8 | 19.3 | 0.00 | 0.00 | 0.00 | 69 | 1014.4 |
| 20260505200404 | 11 | 345 | 6.4 | 19.3 | 0.00 | 0.00 | 0.00 | 69 | 1014.4 |
| 20260505195904 | 12 | 338 | 4.8 | 16.1 | 0.00 | 0.00 | 0.00 | 68 | 1014.3 |
| 20260505195404 | 12 | 20 | 6.4 | 19.3 | 0.00 | 0.00 | 0.00 | 68 | 1014.2 |
| 20260505193904 | 12 | 348 | 6.4 | 19.3 | 0.00 | 0.00 | 0.00 | 66 | 1014.2 |
| 20260505193404 | 12 | 8 | 11.3 | 22.5 | 0.00 | 0.00 | 0.00 | 65 | 1014.1 |
| 20260505192904 | 12 | 18 | 8.0 | 16.1 | 0.00 | 0.00 | 0.00 | 64 | 1014.0 |
| 20260505192403 | 12 | 6 | 6.4 | 16.1 | 0.00 | 0.00 | 0.00 | 63 | 1014.0 |
| 20260505190904 | 12 | 350 | 9.7 | 19.3 | 0.00 | 0.00 | 0.00 | 61 | 1013.9 |
| 20260505190403 | 13 | 12 | 8.0 | 19.3 | 0.00 | 0.00 | 0.00 | 60 | 1013.9 |
| 20260505185903 | 13 | 0 | 8.0 | 19.3 | 0.00 | 0.00 | 0.00 | 61 | 1013.8 |
| 20260505185404 | 13 | 5 | 8.0 | 22.5 | 0.00 | 0.00 | 0.00 | 60 | 1013.8 |
| 20260505183904 | 13 | 340 | 11.3 | 24.1 | 0.00 | 0.00 | 0.00 | 58 | 1013.7 |
| 20260505183404 | 13 | 18 | 12.9 | 20.9 | 0.00 | 0.00 | 0.00 | 58 | 1013.7 |
| 20260505182904 | 13 | 339 | 8.0 | 16.1 | 0.00 | 0.00 | 0.00 | 59 | 1013.6 |
| 20260505182403 | 13 | 356 | 9.7 | 22.5 | 0.00 | 0.00 | 0.00 | 58 | 1013.6 |
| 20260505180904 | 14 | 320 | 9.7 | 20.9 | 0.00 | 0.00 | 0.00 | 59 | 1013.7 |
| 20260505180404 | 14 | 358 | 9.7 | 20.9 | 0.00 | 0.00 | 0.00 | 58 | 1013.7 |
| 20260505175903 | 14 | 0 | 9.7 | 19.3 | 0.00 | 0.00 | 0.00 | 57 | 1013.6 |
| 20260505175404 | 15 | 345 | 8.0 | 22.5 | 0.00 | 0.00 | 0.00 | 58 | 1013.6 |
| 20260505173903 | 15 | 9 | 8.0 | 20.9 | 0.00 | 0.00 | 0.00 | 57 | 1013.6 |
| 20260505173403 | 15 | 336 | 11.3 | 22.5 | 0.00 | 0.00 | 0.00 | 56 | 1013.5 |
| 20260505172903 | 15 | 2 | 14.5 | 25.7 | 0.00 | 0.00 | 0.00 | 57 | 1013.5 |
| 20260505172404 | 15 | 321 | 9.7 | 32.2 | 0.00 | 0.00 | 0.00 | 57 | 1013.5 |
| 20260505170903 | 15 | 0 | 14.5 | 20.9 | 0.00 | 0.00 | 0.00 | 55 | 1013.6 |
| 20260505170403 | 15 | 24 | 9.7 | 22.5 | 0.00 | 0.00 | 0.00 | 55 | 1013.6 |
| 20260505165904 | 16 | 335 | 11.3 | 19.3 | 0.00 | 0.00 | 0.00 | 55 | 1013.6 |
| 20260505165403 | 16 | 29 | 8.0 | 19.3 | 0.00 | 0.00 | 0.00 | 55 | 1013.6 |
| 20260505163903 | 16 | 15 | 9.7 | 14.5 | 0.00 | 0.00 | 0.00 | 54 | 1013.6 |
| 20260505163404 | 16 | 349 | 9.7 | 19.3 | 0.00 | 0.00 | 0.00 | 55 | 1013.7 |
| 20260505162904 | 16 | 18 | 9.7 | 19.3 | 0.00 | 0.00 | 0.00 | 53 | 1013.6 |
| 20260505162404 | 16 | 354 | 4.8 | 19.3 | 0.00 | 0.00 | 0.00 | 55 | 1013.6 |
| 20260505160903 | 16 | 38 | 8.0 | 19.3 | 0.00 | 0.00 | 0.00 | 53 | 1013.7 |
| 20260505152904 | 17 | 335 | 8.0 | 14.5 | 0.00 | 0.00 | 0.00 | 53 | 1013.8 |
| 20260505152405 | 16 | 334 | 4.8 | 19.3 | 0.00 | 0.00 | 0.00 | 53 | 1013.8 |
| 20260505150403 | 16 | 337 | 8.0 | 16.1 | 0.00 | 0.00 | 0.00 | 55 | 1013.9 |
| 20260505140404 | 16 | 0 | 8.0 | 14.5 | 0.00 | 0.00 | 0.00 | 61 | 1014.3 |
| 20260505123903 | 15 | 16 | 8.0 | 16.1 | 0.00 | 0.00 | 0.00 | 66 | 1014.5 |
| 20260505123404 | 15 | 27 | 8.0 | 14.5 | 0.00 | 0.00 | 0.00 | 67 | 1014.6 |
| 20260505122404 | 14 | 350 | 8.0 | 19.3 | 0.00 | 0.00 | 0.00 | 69 | 1014.6 |
| 20260505120903 | 14 | 341 | 8.0 | 22.5 | 0.00 | 0.00 | 0.00 | 69 | 1014.6 |
| 20260505115904 | 14 | 19 | 9.7 | 19.3 | 0.00 | 0.00 | 0.00 | 69 | 1014.6 |
| 20260505115404 | 14 | 22 | 8.0 | 19.3 | 0.00 | 0.00 | 0.00 | 70 | 1014.6 |
| 20260505113904 | 15 | 41 | 8.0 | 16.1 | 0.00 | 0.00 | 0.00 | 71 | 1014.6 |
| 20260505113403 | 15 | 340 | 9.7 | 14.5 | 0.00 | 0.00 | 0.00 | 72 | 1014.6 |
| 20260505112904 | 14 | 32 | 4.8 | 14.5 | 0.00 | 0.00 | 0.00 | 71 | 1014.6 |
| 20260505110904 | 15 | 0 | 3.2 | 8.0 | 0.00 | 0.00 | 0.00 | 76 | 1014.7 |
| 20260505110404 | 14 | 34 | 4.8 | 9.7 | 0.00 | 0.00 | 0.00 | 74 | 1014.7 |
| 20260505100904 | 13 | 4 | 4.8 | 9.7 | 0.00 | 0.00 | 0.00 | 73 | 1014.9 |
| 20260505100403 | 13 | 49 | 3.2 | 9.7 | 0.00 | 0.00 | 0.00 | 72 | 1015.0 |
| 20260505095904 | 13 | 51 | 3.2 | 8.0 | 0.00 | 0.00 | 0.00 | 73 | 1015.0 |
| 20260505095403 | 13 | 46 | 4.8 | 12.9 | 0.00 | 0.00 | 0.00 | 73 | 1014.9 |
| 20260505093904 | 13 | 41 | 6.4 | 16.1 | 0.00 | 0.00 | 0.00 | 74 | 1014.8 |
| 20260505093404 | 13 | 30 | 8.0 | 16.1 | 0.00 | 0.00 | 0.00 | 73 | 1014.7 |
| 20260505092404 | 13 | 25 | 4.8 | 19.3 | 0.00 | 0.00 | 0.00 | 75 | 1014.8 |
| 20260505090904 | 13 | 47 | 6.4 | 14.5 | 0.00 | 0.00 | 0.00 | 76 | 1014.8 |
| 20260505085904 | 13 | 19 | 4.8 | 11.3 | 0.00 | 0.00 | 0.00 | 76 | 1014.7 |
| 20260505085403 | 13 | 53 | 4.8 | 12.9 | 0.00 | 0.00 | 0.00 | 75 | 1014.7 |
| 20260505083904 | 13 | 57 | 1.6 | 11.3 | 0.00 | 0.00 | 0.00 | 75 | 1014.6 |
| 20260505082904 | 14 | 17 | 4.8 | 9.7 | 0.00 | 0.00 | 0.00 | 74 | 1014.5 |
| 20260505082403 | 14 | 47 | 3.2 | 14.5 | 0.00 | 0.00 | 0.00 | 75 | 1014.5 |
| 20260505080904 | 14 | 34 | 4.8 | 11.3 | 0.00 | 0.00 | 0.00 | 74 | 1014.6 |
| 20260505080403 | 13 | 46 | 4.8 | 19.3 | 0.00 | 0.00 | 0.00 | 75 | 1014.6 |
| 20260505075903 | 13 | 33 | 4.8 | 11.3 | 0.00 | 0.00 | 0.00 | 76 | 1014.6 |
| 20260505075403 | 13 | 24 | 6.4 | 19.3 | 0.00 | 0.00 | 0.00 | 77 | 1014.6 |
| 20260505073904 | 12 | 9 | 6.4 | 16.1 | 0.00 | 0.00 | 0.00 | 80 | 1014.5 |
| 20260505073404 | 12 | 34 | 4.8 | 9.7 | 0.00 | 0.00 | 0.00 | 81 | 1014.5 |
| 20260505072403 | 12 | 73 | 3.2 | 9.7 | 0.00 | 0.00 | 0.00 | 82 | 1014.5 |
| 20260505070904 | 11 | 40 | 3.2 | 8.0 | 0.00 | 0.00 | 0.00 | 84 | 1014.6 |
| 20260505070404 | 11 | 46 | 1.6 | 4.8 | 0.00 | 0.00 | 0.00 | 85 | 1014.6 |
| 20260505065404 | 11 | 24 | 4.8 | 9.7 | 0.00 | 0.00 | 0.00 | 86 | 1014.6 |
| 20260505063904 | 11 | 25 | 4.8 | 8.0 | 0.00 | 0.00 | 0.00 | 87 | 1014.5 |
| 20260505062904 | 10 | 12 | 4.8 | 9.7 | 0.00 | 0.00 | 0.00 | 90 | 1014.5 |
| 20260505062403 | 10 | 26 | 1.6 | 4.8 | 0.00 | 0.00 | 0.00 | 91 | 1014.4 |
| 20260505060903 | 10 | 27 | 1.6 | 4.8 | 0.00 | 0.00 | 0.00 | 91 | 1014.4 |
| 20260505055904 | 10 | 20 | 3.2 | 4.8 | 0.00 | 0.00 | 0.00 | 92 | 1014.4 |
| 20260505055405 | 9 | 14 | 1.6 | 3.2 | 0.00 | 0.00 | 0.00 | 92 | 1014.4 |
| 20260505053904 | 9 | 13 | 3.2 | 4.8 | 0.00 | 0.00 | 0.00 | 92 | 1014.4 |
| 20260505053404 | 9 | 9 | 3.2 | 4.8 | 0.00 | 0.00 | 0.00 | 91 | 1014.4 |
| 20260505052903 | 9 | 9 | 1.6 | 4.8 | 0.00 | 0.00 | 0.00 | 91 | 1014.4 |
| 20260505052404 | 9 | 11 | 3.2 | 4.8 | 0.00 | 0.00 | 0.00 | 91 | 1014.4 |
| 20260505050904 | 9 | 12 | 1.6 | 3.2 | 0.00 | 0.00 | 0.00 | 91 | 1014.3 |
| 20260505040904 | 10 | 11 | 0.0 | 0.0 | 0.00 | 0.00 | 0.00 | 90 | 1014.1 |
| 20260505040404 | 10 | 11 | 0.0 | 0.0 | 0.00 | 0.00 | 0.00 | 90 | 1014.1 |
| 20260505035904 | 10 | 11 | 0.0 | 0.0 | 0.00 | 0.00 | 0.00 | 90 | 1014.0 |
| 20260505033404 | 10 | 5 | 0.0 | 0.0 | 0.00 | 0.00 | 0.00 | 89 | 1014.0 |
| 20260505032903 | 10 | 5 | 0.0 | 0.0 | 0.00 | 0.00 | 0.00 | 89 | 1014.0 |
| 20260505032403 | 10 | 5 | 1.6 | 4.8 | 0.00 | 0.00 | 0.00 | 89 | 1014.1 |
| 20260505030904 | 11 | 5 | 0.0 | 0.0 | 0.00 | 0.00 | 0.00 | 89 | 1014.0 |
| 20260505030404 | 11 | 5 | 0.0 | 0.0 | 0.00 | 0.00 | 0.00 | 89 | 1014.1 |
| 20260505025904 | 11 | 5 | 0.0 | 0.0 | 0.00 | 0.00 | 0.00 | 89 | 1014.1 |
| 20260505023403 | 11 | 5 | 0.0 | 0.0 | 0.00 | 0.00 | 0.00 | 88 | 1014.2 |
| 20260505022403 | 11 | 5 | 1.6 | 4.8 | 0.00 | 0.00 | 0.00 | 88 | 1014.2 |
| 20260505020904 | 11 | 32 | 1.6 | 4.8 | 0.00 | 0.00 | 0.00 | 88 | 1014.2 |
| 20260505020404 | 11 | 30 | 3.2 | 4.8 | 0.00 | 0.00 | 0.00 | 88 | 1014.2 |
| 20260505015904 | 11 | 30 | 3.2 | 4.8 | 0.00 | 0.00 | 0.00 | 88 | 1014.2 |
| 20260505015404 | 11 | 30 | 3.2 | 4.8 | 0.00 | 0.00 | 0.00 | 89 | 1014.2 |
| 20260505013903 | 11 | 32 | 3.2 | 4.8 | 0.00 | 0.00 | 0.00 | 90 | 1014.3 |
| 20260505012903 | 11 | 28 | 1.6 | 4.8 | 0.00 | 0.00 | 0.00 | 90 | 1014.5 |
| 20260505012403 | 11 | 29 | 3.2 | 8.0 | 0.00 | 0.00 | 0.00 | 91 | 1014.5 |